SCP
-0 -0 -0 -0 -0 -0 -0 -0 0 0 0 0 0 0 0 0 0 0 0 0 0 -0 0 0 0 -0 -0 -0 -0 -0 -0 -0 -0 -0 -0 -0 -0 -0 -0 -0 -0 -0 -0
-0 -0 -0 -0 -0 -0 -0 -0 0 -0 0 0 0 0 0 0 0 0 0 0 0 -0 -0 -0 -0 -0 -0 -0 -0 -0 -0 -0 -0 -0 -0 -0 -0 -0 -0 -0 -0 -0 -0
-0 -0 -0 -0 -0 -0 -0 -0 -0 -0 -0 -0 -0 0 0 0 0 0 0 0 0 -0 -0 0 0 0 -0 -0 -0 -0 -0 -0 -0 -0 -0 0 0 -0 -0 -0 -0 -0 -0
-0 -0 -0 -0 -0 -0 -0 -0 -0 -0 -0 -0 -0 -0 0 0 -0 -0 0 0 0 0 0 0 0 0 0 -0 -0 -0 -0 -0 -0 -0 0 0 0 -0 -0 -0 -0 -0 -0
-0 -0 -0 -0 -0 -0 -0 -0 -0 -0 -0 -0 -0 -0 0 0 0 0 0 0 0 0 0 0 0 0 0 -0 -0 -0 -0 -0 -0 -0 -0 -0 -0 -0 -0 -0 -0 -0 -0
-0 0 0 -0 -0 -0 -0 -0 -0 -0 -0 0 0 0 0 0 0 0 0 0 0 0 0 0 0 -0 -0 -0 -0 -0 -0 -0 -0 0 0 -0 -0 -0 -0 -0 -0 -0 -0
-0 -0 0 0 -0 -0 -0 -0 -0 0 -0 0 -0 -0 -0 0 0 0 0 0 0 0 0 0 0 0 0 0 -0 -0 -0 -0 0 0 0 0 0 -0 -0 -0 -0 -0 -0
-0 -0 -0 -0 0 0 -0 0 0 0 0 -0 0 0 -0 -0 0 0 0 0 0 0 0 0 0 0 0 -0 -0 0 -0 0 0 0 0 0 0 0 -0 -0 -0 -0 -0
0 -0 0 0 -0 -0 0 0 0 0 0 0 0 0 0 0 0 0 0 0 0 0 0 0 0 0 0 0 0 0 0 0 0 0 0 0 0 0 0 0 0 0 0
0 0 0 0 0 0 0 0 0 0 0 0 0 0 0 0 0 0 0 0 0 0 0 0 0 0 0 0 0 0 0 0 0 0 0 0 0 0 0 0 0 0 0
0 0 0 0 0 0 0 0 0 0 0 0 0 0 0 0 0 0 0 0 0 0 0 0 0 0 0 0 0 0 0 0 0 0 0 0 0 0 0 0 0 0 0
0 0 0 0 0 0 0 0 0 0 0 0 0 0 0 0 0 0 0 0 0 0 0 0 0 0 0 0 0 0 0 0 0 0 0 0 0 0 0 0 0 0 0
0 0 0 0 0 0 0 0 0 0 0 0 0 0 0 0 0 0 0 0 0 0 0 0 0 0 0 0 0 0 0 0 0 0 0 0 0 0 0 0 0 0 0
0 0 0 0 0 0 0 0 0 0 0 0 0 0 0 0 0 0 0 0 0 0 0 0 0 0 0 0 0 0 0 0 0 0 0 0 0 0 0 0 0 0 0
0 0 0 0 0 0 0 0 0 0 0 0 0 0 0 0 0 0 0 0 0 0 0 0 0 0 0 0 0 0 0 0 0 0 0 0 0 0 0 0 0 0 0
0 0 0 0 0 0 0 0 0 0 0 0 0 0 0 0 0 0 0 0 0 0 0 0 0 0 0 0 0 0 0 0 0 0 0 0 0 0 0 0 0 0 0
0 0 0 0 0 0 0 0 0 0 0 0 0 0 0 0 0 0 0 0 0 0 0 0 0 0 0 0 0 0 0 0 0 0 0 0 0 0 0 0 0 0 0
0 0 0 0 0 0 0 0 0 0 0 0 0 0 0 0 0 0 0 0 0 0 0 0 0 0 0 0 0 0 0 0 0 0 0 0 0 0 0 0 0 0 0
0 0 0 0 0 0 0 0 0 0 0 0 0 0 0 0 0 0 0 0 0 0 0 0 0 0 0 0 0 0 0 0 0 0 0 0 0 0 0 0 0 0 0
0 0 0 0 0 0 0 0 0 0 0 0 0 0 0 0 0 0 0 0 0 0 0 0 0 0 0 0 0 0 0 0 0 0 0 0 0 0 0 0 0 0 0
0 0 0 0 0 0 0 0 0 0 0 0 0 0 0 0 0 0 0 0 0 0 0 0 0 0 0 0 0 0 0 0 0 0 0 0 0 0 0 0 0 0 0
0 0 0 0 0 0 0 0 0 0 0 0 0 0 0 0 0 0 0 0 0 0 0 0 0 0 0 0 0 0 0 0 0 0 0 0 0 0 0 0 0 0 0
0 0 0 0 0 0 0 0 0 0 0 0 0 0 0 0 0 0 0 0 0 0 0 0 0 0 0 0 0 0 0 0 0 0 0 0 0 0 0 0 0 0 0
0 0 0 0 0 0 0 0 0 0 0 0 0 0 0 0 0 0 0 0 0 0 0 0 0 0 0 0 0 0 0 0 0 0 0 0 0 0 0 0 0 0 0
0 0 0 0 0 0 0 0 0 0 0 0 0 0 0 0 0 0 0 0 0 0 0 0 0 0 0 0 0 0 0 0 0 0 0 0 0 0 0 0 0 0 0
0 0 0 0 0 0 0 0 0 0 0 0 0 0 0 0 0 0 0 0 0 0 0 0 0 0 0 0 0 0 0 0 0 0 0 0 0 0 0 0 0 0 0
Wind_Speed_500mb
54 48 44 41 38 34 31 31 31 29 28 25 23 20 18 16 14 13 12 9 5 8 9 10 11 8 9 8 7 4 4 5 6 7 9 12 15 13 12 13 15 17 15
49 48 49 44 40 36 33 30 28 28 26 26 26 27 25 22 19 16 11 11 14 13 11 10 6 5 2 5 3 0 3 2 1 2 4 9 11 10 7 4 8 9 7
42 46 48 46 44 39 34 32 28 26 25 28 21 21 24 26 22 19 16 17 17 16 14 6 5 7 7 6 4 1 2 3 3 3 3 2 4 4 3 3 5 8 6
34 40 43 44 43 42 37 33 32 27 27 24 23 22 20 21 17 17 18 20 20 22 17 8 9 9 10 10 8 9 8 7 7 6 6 6 7 8 9 7 8 7 7
34 38 40 40 41 41 41 36 33 35 29 29 27 24 20 18 15 15 18 21 23 21 17 17 15 15 16 15 14 13 15 15 13 12 11 10 10 12 12 11 10 10 9
32 39 40 39 39 37 37 37 36 35 37 34 31 24 22 23 20 19 22 23 22 21 19 17 17 16 17 16 15 14 16 17 18 19 19 17 17 17 15 12 7 9 12
29 35 41 42 40 39 39 40 41 42 43 33 24 23 23 22 22 20 21 20 19 18 17 16 15 12 10 9 8 8 10 13 14 16 19 22 24 24 22 19 19 17 16
29 33 38 43 43 42 40 41 41 41 42 33 27 25 24 23 22 20 19 18 16 14 11 9 6 5 4 3 3 4 5 6 8 9 12 17 23 26 26 27 26 27 23
30 34 38 44 46 44 41 42 42 40 41 36 31 27 26 24 21 18 16 15 12 9 8 7 5 4 4 4 6 6 8 9 10 10 11 12 17 22 25 26 29 31 28
36 37 40 44 49 48 45 45 43 42 40 36 33 30 27 25 23 21 18 15 13 12 10 9 7 6 5 5 5 6 8 9 11 13 14 14 15 18 21 23 26 29 30
40 42 44 47 51 50 50 48 47 46 42 41 38 34 30 28 25 23 21 19 17 15 13 11 8 7 6 6 6 5 6 8 10 11 13 15 18 20 20 22 25 26 28
45 45 48 49 52 54 55 54 53 50 48 46 43 38 35 34 30 29 27 25 21 18 16 13 11 8 7 6 6 6 7 9 10 11 12 13 15 19 21 21 23 25 25
45 49 52 54 54 57 59 59 58 57 55 53 49 44 43 42 39 36 32 28 25 21 17 13 10 8 7 8 8 9 11 12 13 13 12 13 15 17 19 20 21 25 27
52 49 54 58 59 61 62 64 64 64 62 60 55 51 51 50 46 42 38 35 30 24 20 16 12 10 9 10 11 13 13 14 15 16 16 15 15 16 17 20 20 21 23
58 58 58 59 63 65 68 68 70 70 69 66 62 59 56 56 53 48 45 41 36 31 26 21 16 13 11 11 12 14 16 17 17 18 18 16 16 17 18 19 18 16 12
47 51 58 64 67 69 71 73 74 74 72 72 71 67 64 62 60 55 51 48 42 37 32 27 21 17 13 12 13 15 16 17 18 20 20 18 15 14 16 19 19 17 3
54 51 55 64 72 76 77 76 78 77 77 78 77 74 71 68 67 63 59 55 49 43 38 33 26 21 17 15 16 17 17 17 18 18 17 15 13 13 13 16 15 18 23
72 68 63 63 72 80 83 82 83 83 82 83 83 80 79 75 73 71 67 61 56 51 45 39 33 28 23 19 17 15 16 18 18 15 14 14 12 11 11 11 14 18 19
75 74 73 74 74 78 86 90 89 89 88 89 87 86 86 81 79 77 72 66 64 59 53 45 39 33 26 22 18 17 17 18 18 16 13 12 12 12 13 14 14 14 15
55 55 57 65 76 78 86 96 97 97 97 97 94 93 90 87 85 82 78 75 71 67 60 54 46 38 32 27 22 18 17 17 18 18 18 16 15 14 14 15 14 13 11
44 50 54 60 65 80 87 96 103 106 104 107 103 99 96 92 91 89 86 83 78 74 65 58 51 47 42 36 27 20 17 16 18 21 21 20 17 15 13 12 14 17 18
31 35 47 54 63 72 83 89 99 103 108 110 107 106 103 101 97 96 93 88 83 77 72 67 61 56 51 42 32 22 15 18 22 23 24 22 16 15 10 12 15 15 15
37 36 37 42 49 62 74 86 95 102 102 106 114 113 111 104 101 99 95 92 88 83 81 74 70 63 58 51 42 30 16 17 25 33 34 30 27 23 13 15 16 16 14
37 30 32 38 44 53 67 81 91 97 101 101 106 112 111 107 105 103 100 96 93 89 86 79 74 70 65 59 49 46 39 28 23 20 37 34 32 32 20 19 18 16 17
64 39 33 34 42 50 61 71 80 86 91 96 94 101 107 109 108 105 103 100 97 93 87 84 81 79 73 66 61 53 47 42 40 34 25 34 35 34 28 23 20 18 16
58 52 44 34 35 39 49 57 68 77 83 88 93 93 92 103 109 108 107 105 100 96 94 89 85 81 76 70 65 60 55 50 46 42 41 32 32 31 30 27 23 20 17
Wind_Direction_500mb
188 189 188 186 184 185 181 177 176 177 182 187 191 194 201 198 198 199 197 194 203 224 225 227 234 238 230 224 207 189 110 106 102 96 93 90 90 87 70 57 71 69 58
189 190 193 193 190 190 193 193 189 185 190 197 203 203 210 218 222 224 219 189 185 214 226 236 240 256 257 267 290 329 228 208 122 97 104 109 117 120 120 74 63 58 51
192 195 195 198 199 200 201 200 201 202 206 209 205 214 219 228 233 243 233 227 219 231 248 271 296 303 305 299 304 282 260 266 260 247 255 208 179 210 231 283 336 352 358
186 198 200 199 200 200 200 199 200 203 204 209 204 202 218 235 236 233 232 231 237 246 265 276 268 274 278 285 289 289 279 262 264 261 253 251 245 246 263 275 284 299 312
185 195 199 202 201 201 200 202 199 201 203 197 198 207 223 232 237 229 231 234 244 256 267 270 270 273 272 269 269 269 274 277 272 269 265 261 251 256 257 276 279 282 285
194 195 201 201 202 198 191 193 197 202 204 201 211 222 230 236 238 238 232 231 237 245 253 257 259 263 269 272 271 267 265 268 269 266 264 261 260 256 260 271 283 280 266
207 204 203 203 203 203 198 195 196 205 216 220 229 228 228 232 230 224 225 230 234 239 248 256 260 263 263 273 275 273 275 268 266 263 258 255 254 259 266 260 259 262 273
217 214 209 208 210 211 209 208 212 216 225 233 236 227 226 223 223 221 223 227 228 231 232 232 232 233 239 251 285 274 269 276 270 262 258 253 256 256 255 257 259 263 270
224 220 217 213 215 218 217 216 217 220 226 231 232 223 221 221 218 214 213 216 215 212 206 211 217 236 264 270 267 278 277 276 280 276 263 254 251 258 259 258 258 261 261
227 227 223 221 220 222 222 222 223 225 228 230 231 228 220 214 209 209 211 211 205 199 197 198 205 215 233 247 253 259 269 274 276 275 272 270 267 263 265 263 259 260 261
233 230 227 225 224 225 225 226 226 229 227 225 227 229 223 216 213 214 213 210 205 203 204 212 223 233 244 257 271 276 290 289 287 282 280 275 269 269 272 272 271 269 269
244 240 233 230 228 226 226 227 227 230 227 226 228 229 223 219 215 217 213 209 206 206 211 217 221 238 254 263 276 294 299 300 299 298 292 278 270 268 268 268 270 273 271
260 248 243 237 232 230 229 229 230 231 229 228 228 226 221 220 220 221 219 216 214 215 220 226 236 245 262 285 300 312 319 320 317 311 302 287 275 267 264 264 262 262 266
258 254 247 244 239 237 232 232 232 233 232 231 231 228 225 223 222 220 219 217 219 221 224 229 238 257 278 294 309 318 322 322 321 317 313 302 285 272 265 259 261 265 268
255 252 247 243 243 241 237 236 234 234 234 234 233 232 229 227 227 224 223 222 221 220 222 225 233 245 260 279 299 310 318 321 321 318 314 308 295 282 269 259 251 251 258
262 257 250 246 243 242 241 239 239 237 237 235 234 233 231 230 229 228 227 226 224 223 223 224 228 237 255 279 299 311 315 318 320 319 319 314 302 281 264 252 250 244 157
277 268 257 249 244 242 240 240 239 239 237 237 236 235 233 232 230 229 228 227 227 225 224 226 230 238 248 266 282 295 299 304 307 308 305 300 293 284 263 240 218 155 149
280 275 271 257 247 243 241 241 239 238 237 237 236 236 235 233 231 229 228 227 227 226 224 224 225 227 232 244 261 277 288 294 293 287 277 267 259 251 246 237 241 239 243
281 276 271 264 255 246 240 240 239 239 238 237 236 235 235 235 233 230 229 228 228 226 225 225 226 226 233 244 257 273 283 289 289 279 262 245 236 233 232 238 243 236 236
290 280 270 258 252 249 242 239 238 238 237 237 235 235 234 233 232 231 230 229 229 228 225 225 225 227 229 233 243 257 271 275 267 254 245 237 239 245 248 250 254 258 258
299 286 275 262 251 239 236 236 236 237 237 236 234 234 233 231 231 231 231 230 229 229 229 227 224 225 224 226 230 235 246 250 245 230 223 219 216 215 211 224 240 250 259
311 297 281 266 254 244 238 239 236 238 238 238 236 234 232 230 228 228 230 230 231 230 227 225 225 224 223 223 224 221 229 238 226 221 217 212 220 226 228 265 265 263 260
333 314 293 278 263 252 245 240 237 237 238 239 236 234 232 230 231 230 229 230 232 231 231 230 229 227 228 227 224 217 195 211 213 224 226 227 234 216 252 267 262 261 250
314 306 305 294 270 256 248 245 241 240 240 242 240 237 234 231 231 231 231 231 230 231 231 230 230 229 228 228 225 228 232 230 196 207 224 229 216 235 250 262 258 243 231
359 319 294 287 275 263 257 255 251 246 246 247 246 242 235 232 231 231 233 232 231 231 231 231 229 227 228 229 231 231 231 231 231 228 219 222 230 225 240 246 241 228 230
4 9 350 331 310 286 272 265 263 258 254 250 247 245 243 235 231 232 232 232 233 232 231 230 230 231 231 232 234 236 239 234 233 229 229 226 221 226 234 234 233 224 214
Wind_Speed_850mb
54 48 44 41 38 34 31 31 31 29 28 25 23 20 18 16 14 13 12 9 5 8 9 10 11 8 9 8 7 4 4 5 6 7 9 12 15 13 12 13 15 17 15
49 48 49 44 40 36 33 30 28 28 26 26 26 27 25 22 19 16 11 11 14 13 11 10 6 5 2 5 3 0 3 2 1 2 4 9 11 10 7 4 8 9 7
42 46 48 46 44 39 34 32 28 26 25 28 21 21 24 26 22 19 16 17 17 16 14 6 5 7 7 6 4 1 2 3 3 3 3 2 4 4 3 3 5 8 6
34 40 43 44 43 42 37 33 32 27 27 24 23 22 20 21 17 17 18 20 20 22 17 8 9 9 10 10 8 9 8 7 7 6 6 6 7 8 9 7 8 7 7
34 38 40 40 41 41 41 36 33 35 29 29 27 24 20 18 15 15 18 21 23 21 17 17 15 15 16 15 14 13 15 15 13 12 11 10 10 12 12 11 10 10 9
32 39 40 39 39 37 37 37 36 35 37 34 31 24 22 23 20 19 22 23 22 21 19 17 17 16 17 16 15 14 16 17 18 19 19 17 17 17 15 12 7 9 12
29 35 41 42 40 39 39 40 41 42 43 33 24 23 23 22 22 20 21 20 19 18 17 16 15 12 10 9 8 8 10 13 14 16 19 22 24 24 22 19 19 17 16
29 33 38 43 43 42 40 41 41 41 42 33 27 25 24 23 22 20 19 18 16 14 11 9 6 5 4 3 3 4 5 6 8 9 12 17 23 26 26 27 26 27 23
30 34 38 44 46 44 41 42 42 40 41 36 31 27 26 24 21 18 16 15 12 9 8 7 5 4 4 4 6 6 8 9 10 10 11 12 17 22 25 26 29 31 28
36 37 40 44 49 48 45 45 43 42 40 36 33 30 27 25 23 21 18 15 13 12 10 9 7 6 5 5 5 6 8 9 11 13 14 14 15 18 21 23 26 29 30
40 42 44 47 51 50 50 48 47 46 42 41 38 34 30 28 25 23 21 19 17 15 13 11 8 7 6 6 6 5 6 8 10 11 13 15 18 20 20 22 25 26 28
45 45 48 49 52 54 55 54 53 50 48 46 43 38 35 34 30 29 27 25 21 18 16 13 11 8 7 6 6 6 7 9 10 11 12 13 15 19 21 21 23 25 25
45 49 52 54 54 57 59 59 58 57 55 53 49 44 43 42 39 36 32 28 25 21 17 13 10 8 7 8 8 9 11 12 13 13 12 13 15 17 19 20 21 25 27
52 49 54 58 59 61 62 64 64 64 62 60 55 51 51 50 46 42 38 35 30 24 20 16 12 10 9 10 11 13 13 14 15 16 16 15 15 16 17 20 20 21 23
58 58 58 59 63 65 68 68 70 70 69 66 62 59 56 56 53 48 45 41 36 31 26 21 16 13 11 11 12 14 16 17 17 18 18 16 16 17 18 19 18 16 12
47 51 58 64 67 69 71 73 74 74 72 72 71 67 64 62 60 55 51 48 42 37 32 27 21 17 13 12 13 15 16 17 18 20 20 18 15 14 16 19 19 17 3
54 51 55 64 72 76 77 76 78 77 77 78 77 74 71 68 67 63 59 55 49 43 38 33 26 21 17 15 16 17 17 17 18 18 17 15 13 13 13 16 15 18 23
72 68 63 63 72 80 83 82 83 83 82 83 83 80 79 75 73 71 67 61 56 51 45 39 33 28 23 19 17 15 16 18 18 15 14 14 12 11 11 11 14 18 19
75 74 73 74 74 78 86 90 89 89 88 89 87 86 86 81 79 77 72 66 64 59 53 45 39 33 26 22 18 17 17 18 18 16 13 12 12 12 13 14 14 14 15
55 55 57 65 76 78 86 96 97 97 97 97 94 93 90 87 85 82 78 75 71 67 60 54 46 38 32 27 22 18 17 17 18 18 18 16 15 14 14 15 14 13 11
44 50 54 60 65 80 87 96 103 106 104 107 103 99 96 92 91 89 86 83 78 74 65 58 51 47 42 36 27 20 17 16 18 21 21 20 17 15 13 12 14 17 18
31 35 47 54 63 72 83 89 99 103 108 110 107 106 103 101 97 96 93 88 83 77 72 67 61 56 51 42 32 22 15 18 22 23 24 22 16 15 10 12 15 15 15
37 36 37 42 49 62 74 86 95 102 102 106 114 113 111 104 101 99 95 92 88 83 81 74 70 63 58 51 42 30 16 17 25 33 34 30 27 23 13 15 16 16 14
37 30 32 38 44 53 67 81 91 97 101 101 106 112 111 107 105 103 100 96 93 89 86 79 74 70 65 59 49 46 39 28 23 20 37 34 32 32 20 19 18 16 17
64 39 33 34 42 50 61 71 80 86 91 96 94 101 107 109 108 105 103 100 97 93 87 84 81 79 73 66 61 53 47 42 40 34 25 34 35 34 28 23 20 18 16
58 52 44 34 35 39 49 57 68 77 83 88 93 93 92 103 109 108 107 105 100 96 94 89 85 81 76 70 65 60 55 50 46 42 41 32 32 31 30 27 23 20 17
Wind_Direction_850mb
188 189 188 186 184 185 181 177 176 177 182 187 191 194 201 198 198 199 197 194 203 224 225 227 234 238 230 224 207 189 110 106 102 96 93 90 90 87 70 57 71 69 58
189 190 193 193 190 190 193 193 189 185 190 197 203 203 210 218 222 224 219 189 185 214 226 236 240 256 257 267 290 329 228 208 122 97 104 109 117 120 120 74 63 58 51
192 195 195 198 199 200 201 200 201 202 206 209 205 214 219 228 233 243 233 227 219 231 248 271 296 303 305 299 304 282 260 266 260 247 255 208 179 210 231 283 336 352 358
186 198 200 199 200 200 200 199 200 203 204 209 204 202 218 235 236 233 232 231 237 246 265 276 268 274 278 285 289 289 279 262 264 261 253 251 245 246 263 275 284 299 312
185 195 199 202 201 201 200 202 199 201 203 197 198 207 223 232 237 229 231 234 244 256 267 270 270 273 272 269 269 269 274 277 272 269 265 261 251 256 257 276 279 282 285
194 195 201 201 202 198 191 193 197 202 204 201 211 222 230 236 238 238 232 231 237 245 253 257 259 263 269 272 271 267 265 268 269 266 264 261 260 256 260 271 283 280 266
207 204 203 203 203 203 198 195 196 205 216 220 229 228 228 232 230 224 225 230 234 239 248 256 260 263 263 273 275 273 275 268 266 263 258 255 254 259 266 260 259 262 273
217 214 209 208 210 211 209 208 212 216 225 233 236 227 226 223 223 221 223 227 228 231 232 232 232 233 239 251 285 274 269 276 270 262 258 253 256 256 255 257 259 263 270
224 220 217 213 215 218 217 216 217 220 226 231 232 223 221 221 218 214 213 216 215 212 206 211 217 236 264 270 267 278 277 276 280 276 263 254 251 258 259 258 258 261 261
227 227 223 221 220 222 222 222 223 225 228 230 231 228 220 214 209 209 211 211 205 199 197 198 205 215 233 247 253 259 269 274 276 275 272 270 267 263 265 263 259 260 261
233 230 227 225 224 225 225 226 226 229 227 225 227 229 223 216 213 214 213 210 205 203 204 212 223 233 244 257 271 276 290 289 287 282 280 275 269 269 272 272 271 269 269
244 240 233 230 228 226 226 227 227 230 227 226 228 229 223 219 215 217 213 209 206 206 211 217 221 238 254 263 276 294 299 300 299 298 292 278 270 268 268 268 270 273 271
260 248 243 237 232 230 229 229 230 231 229 228 228 226 221 220 220 221 219 216 214 215 220 226 236 245 262 285 300 312 319 320 317 311 302 287 275 267 264 264 262 262 266
258 254 247 244 239 237 232 232 232 233 232 231 231 228 225 223 222 220 219 217 219 221 224 229 238 257 278 294 309 318 322 322 321 317 313 302 285 272 265 259 261 265 268
255 252 247 243 243 241 237 236 234 234 234 234 233 232 229 227 227 224 223 222 221 220 222 225 233 245 260 279 299 310 318 321 321 318 314 308 295 282 269 259 251 251 258
262 257 250 246 243 242 241 239 239 237 237 235 234 233 231 230 229 228 227 226 224 223 223 224 228 237 255 279 299 311 315 318 320 319 319 314 302 281 264 252 250 244 157
277 268 257 249 244 242 240 240 239 239 237 237 236 235 233 232 230 229 228 227 227 225 224 226 230 238 248 266 282 295 299 304 307 308 305 300 293 284 263 240 218 155 149
280 275 271 257 247 243 241 241 239 238 237 237 236 236 235 233 231 229 228 227 227 226 224 224 225 227 232 244 261 277 288 294 293 287 277 267 259 251 246 237 241 239 243
281 276 271 264 255 246 240 240 239 239 238 237 236 235 235 235 233 230 229 228 228 226 225 225 226 226 233 244 257 273 283 289 289 279 262 245 236 233 232 238 243 236 236
290 280 270 258 252 249 242 239 238 238 237 237 235 235 234 233 232 231 230 229 229 228 225 225 225 227 229 233 243 257 271 275 267 254 245 237 239 245 248 250 254 258 258
299 286 275 262 251 239 236 236 236 237 237 236 234 234 233 231 231 231 231 230 229 229 229 227 224 225 224 226 230 235 246 250 245 230 223 219 216 215 211 224 240 250 259
311 297 281 266 254 244 238 239 236 238 238 238 236 234 232 230 228 228 230 230 231 230 227 225 225 224 223 223 224 221 229 238 226 221 217 212 220 226 228 265 265 263 260
333 314 293 278 263 252 245 240 237 237 238 239 236 234 232 230 231 230 229 230 232 231 231 230 229 227 228 227 224 217 195 211 213 224 226 227 234 216 252 267 262 261 250
314 306 305 294 270 256 248 245 241 240 240 242 240 237 234 231 231 231 231 231 230 231 231 230 230 229 228 228 225 228 232 230 196 207 224 229 216 235 250 262 258 243 231
359 319 294 287 275 263 257 255 251 246 246 247 246 242 235 232 231 231 233 232 231 231 231 231 229 227 228 229 231 231 231 231 231 228 219 222 230 225 240 246 241 228 230
4 9 350 331 310 286 272 265 263 258 254 250 247 245 243 235 231 232 232 232 233 232 231 230 230 231 231 232 234 236 239 234 233 229 229 226 221 226 234 234 233 224 214